Location: Proctor
(47.8934°N, 114.3048°W)
Time: 00:15:23
(UTC+00:00)

POLYITAN 1 - Pass Details

Date: 05 July 2022
Orbit: 586 x 605 km, 98.0° (Epoch: 15 August)

Event Time Altitude Azimuth Distance (km) Brightness Sun altitude
Rises 10:00:15 0° 8° (N) 2,864 ? -12.8°
Reaches altitude 10° 10:02:29 10° 3° (N) 1,959 ? -12.6°
Maximum altitude 10:06:35 48° 289° (WNW) 794 ? -12.2°
Enters shadow 10:09:32 18° 221° (SW) 1,516 ? -12.0°
